Погода в Новоблагодарном

Россия / Ставропольский край     44°08′46″N   42°52′24″E
темп.,
°C
ветер,
м/с
пор.,
м/с
влажн.,
%
обл.,
%
осадки,
мм/ч
давл.,
гПа
погр.,
м
15 июня, вт
вт1500:00+16вюв229297 0.0 100926
03:00+16всв2391100 0.0 100859
06:00+18в3690100 0.0 1008207
09:00+23в467027 0.0 1008871
12:00+25в336350 0.0 10081347
15:00+24всв447293 0.1 1009628
18:00+23в347874 0.3 1009195
21:00+19ююз118616 0.5 101111
16 июня, ср
ср1600:00+18юз229037 0.0 101124
03:00+17юз11910 0.0 101011
06:00+18вюв11883 0.0 101094
09:00+23в57732 0.0 1009886
12:00+26в796447 0.0 10081570
15:00+26в79626 0.1 10081553
18:00+24вюв510701 0.0 1007742
21:00+20в48830 0.0 1006184
17 июня, чт
чт1700:00+18в48832 0.0 1005163
03:00+17в2386100 0.0 100640
06:00+18з22863 0.0 1008106
09:00+19зсз6128938 1.9 1010744
12:00+23сз8117494 0.3 10121232
15:00+22сз577975 1.1 10141031
18:00+21зсз578435 1.0 1015699
21:00+17з48943 1.1 1017241
18 июня, пт
пт1800:00+16з499336 0.0 1018267
03:00+15зюз38930 0.0 1018178
06:00+16зсз2588100 0.0 1019194
09:00+21сз457647 0.0 1018790
12:00+21с548093 0.1 1018727
15:00+21с228241 0.2 1018469
18:00+23ссз02754 0.1 1018529
21:00+19ю11869 0.3 101811
19 июня, сб
сб1900:00+18ююв118722 0.0 101812
03:00+17в22900 0.0 101812
06:00+18всв269281 0.0 1018237
09:00+22в6108672 0.0 1018777
12:00+24в9137796 0.2 10171336
15:00+26вюв915590 0.3 10161778
18:00+23в916650 0.0 1016906
21:00+20в817600 0.0 1016737